Location: Pitton
(51.0667°N, 1.7000°W)
Time: 06:03:47
(UTC+00:00)

Cosmos 2297 Rocket - Pass Details

Date: 17 September 2019
Orbit: 841 x 842 km, 71.0° (Epoch: 19 October)

Event Time Altitude Azimuth Distance (km) Brightness Sun altitude
Rises 22:56:57 0° 261° (W) 3,397 5.5 -35.1°
Reaches altitude 10° 23:00:02 10° 277° (W) 2,465 4.9 -35.3°
Maximum altitude 23:04:12 21° 325° (NW) 1,836 4.5 -35.5°
Drops below altitude 10° 23:08:22 10° 13° (NNE) 2,473 5.2 -35.7°
Sets 23:11:30 0° 30° (NNE) 3,410 5.9 -35.8°
